Flight Track Log - Related Links

Times and Time Zones

All times are in EDT time to prevent confusion due to time zone crossing. See the SWA3211 flight status page for this flight to view local times or setup timezone preferences in your user account.

Time Position Orientation Groundspeed Altitude Reporting Facility
EDT Latitude Longitude Course Direction KTS MPH feet Rate Location/Type
Fri 06:25:15 PM 29.8072 -95.7346 125° Southeast  Level FlightAware Approximate
Fri 06:26:15 PM 29.8195 -95.7928 123° Southeast  Level FlightAware Approximate
Fri 06:27:15 PM 29.8317 -95.8511 121° Southeast  Level FlightAware Approximate
Fri 06:29:11 PM 29.5617 -95.3364 240° Southwest 231 266 4,000  Level Houston Center
Fri 06:30:18 PM 29.5286 -95.4019 304° West 282 325 6,400 2,852 Climbing Houston Center
Fri 06:31:13 PM 29.5744 -95.4800 299° West 296 341 9,800 2,667 Climbing Houston Center
Fri 06:32:15 PM 29.6197 -95.5750 301° West 359 413 11,600 1,968 Climbing Houston Center
Fri 06:33:18 PM 29.6653 -95.6628 300° West 370 426 13,900 2,146 Climbing Houston Center
Fri 06:34:18 PM 29.7144 -95.7625 299° West 370 426 16,000 1,050 Climbing Houston Center
Fri 06:35:18 PM 29.7656 -95.8675 301° West 365 420 16,000 400 Level Houston Center
Fri 06:36:18 PM 29.8206 -95.9750 299° West 376 433 16,800 1,450 Climbing Houston Center
Fri 06:37:18 PM 29.8714 -96.0800 299° West 376 433 18,900 1,600 Climbing Houston Center
Fri 06:38:18 PM 29.9222 -96.1853 280° West 381 438 20,000 550 Climbing Houston Center
Fri 06:39:18 PM 29.9411 -96.3036 274° West 376 433 20,000  Level Houston Center
Fri 06:40:18 PM 29.9475 -96.4236 271° West 376 433 20,000 -450 Level Houston Center
Fri 06:41:18 PM 29.9494 -96.5458 290° West 376 433 19,100 -1,750 Descending Houston Center
Fri 06:42:18 PM 29.9831 -96.6531 288° West 362 417 16,500 -2,500 Descending Houston Center
Fri 06:43:18 PM 30.0144 -96.7647 290° West 362 417 14,100 -2,250 Descending Houston Center
Fri 06:44:18 PM 30.0497 -96.8792 286° West 352 405 12,000 -1,500 Descending Houston Center
Fri 06:45:18 PM 30.0750 -96.9814 286° West 341 392 11,100 -1,000 Descending Houston Center
Fri 06:46:18 PM 30.1003 -97.0808 285° West 336 387 10,000 -1,150 Descending Houston Center
Fri 06:47:18 PM 30.1214 -97.1733 295° West 316 364 8,800 -1,350 Descending Houston Center
Fri 06:48:18 PM 30.1536 -97.2542 298° West 295 339 7,300 -1,400 Descending Houston Center
Fri 06:49:18 PM 30.1900 -97.3331 297° West 282 325 6,000 -800 Descending Houston Center
Fri 06:50:18 PM 30.2225 -97.4069 297° West 266 306 5,700 -800 Descending Houston Center
Fri 06:51:18 PM 30.2528 -97.4758 287° West 249 287 4,400 -1,200 Descending Houston Center
Fri 06:52:18 PM 30.2708 -97.5442 288° West 243 280 3,300 -900 Descending Houston Center
Fri 06:53:18 PM 30.2906 -97.6150 225° Southwest 238 274 2,600 -800 Descending Houston Center
Fri 06:54:18 PM 30.2575 -97.6539 188° South 175 201 1,700 -800 Descending Houston Center
Fri 06:55:18 PM 30.2239 -97.6592 188° South 144 166 1,000 -700 Descending Houston Center

Login

Don't have an account? Register now (free) for customized features, flight alerts, and more!